Location: Unspecified
(0.0000°N, 0.0000°E)
Time: 21:51:12
(UTC+02:00)

Iridium 84 - Visible Passes

Search period start: 19 October 2017 00:00
Search period end: 29 October 2017 00:00
Orbit: 776 x 779 km, 86.4° (Epoch: 19 October)

Date Brightness Start Highest point End Pass type
(mag) Time Alt. Az. Time Alt. Az. Time Alt. Az.
20 Oct 8.6 06:51:53 10° NE 06:55:00 16° E 06:58:06 10° SE visible
21 Oct 8.3 20:31:32 10° SW 20:35:30 22° W 20:39:28 10° NW visible
23 Oct 8.0 06:50:47 10° NE 06:55:03 26° E 06:59:19 10° SE visible
24 Oct 8.9 06:20:03 10° ENE 06:21:36 11° E 06:23:09 10° ESE visible
24 Oct 8.7 20:33:05 10° WSW 20:35:33 13° W 20:38:02 10° WNW visible
26 Oct 7.0 06:50:13 10° NNE 06:55:06 42° E 07:00:00 10° SSE visible
27 Oct 8.3 06:18:03 10° NE 06:21:40 19° E 06:25:16 10° SE visible
